This demonstration page uses our WeatherBlox Daily Observations layout. Learn more.

Left ArrowRight Arrow

39.08367, -84.50855

Hourly Observations for November 3, 2022

Temp ( °F °C ) Dew Point ( °F °C ) Humidity (%) Winds ( mph kmh ) Pressure ( in mb ) Visibility ( mi km ) Precip ( " mm )
12:53 am 00:53 Cloudy with Mist and Fog 51 10.6 51 10.6 100 100 NNE 3 6 30.29 1026 4 6 0.00 0.00
1:45 am 01:45 Partly Cloudy with Mist and Fog 50 10 50 10 100 100 undefined N/A 30.30 1026 1 2 0.00 0.00
1:53 am 01:53 Mostly Clear with Fog 51 10.6 51 10.6 100 100 undefined N/A 30.29 1026 1 1 0.00 0.00
2:07 am 02:07 Mostly Cloudy with Fog 50 10 50 10 100 100 undefined N/A 30.30 1026 0 0 0.00 0.00
2:22 am 02:22 Cloudy with Mist and Fog 50 10 50 10 100 100 Calm 30.29 1026 1 2 0.00 0.00
2:28 am 02:28 Cloudy with Mist and Fog 50 10 50 10 100 100 Calm 30.29 1026 1 1 0.00 0.00
2:37 am 02:37 Cloudy with Fog 50 10 50 10 100 100 Calm 30.30 1026 0 0 0.00 0.00
2:49 am 02:49 Cloudy with Fog 50 10 50 10 100 100 Calm 30.30 1026 0 0 0.00 0.00
2:53 am 02:53 Mostly Cloudy with Fog 50 10 50 10 100 100 Calm 30.28 1026 0 0 0.00 0.00
3:15 am 03:15 Mostly Clear with Fog 48 8.9 48 8.9 100 100 Calm 30.30 1026 0 0 0.00 0.00
3:28 am 03:28 Mostly Clear with Fog 48 8.9 48 8.9 100 100 Calm 30.30 1026 0 0 0.00 0.00
3:53 am 03:53 Mostly Clear with Fog 46 7.8 46 7.8 100 100 Calm 30.29 1026 0 0 0.00 0.00
4:16 am 04:16 Cloudy with Fog 47 8.3 47 8.3 100 100 NNE 3 6 30.30 1026 0 0 0.00 0.00
4:53 am 04:53 Mostly Clear with Fog 47 8.3 47 8.3 100 100 NE 3 6 30.29 1026 0 0 0.00 0.00
5:03 am 05:03 Mostly Clear with Fog 48 8.9 48 8.9 100 100 Calm 30.31 1026 0 0 0.00 0.00
5:45 am 05:45 Mostly Clear with Fog 47 8.3 47 8.3 100 100 ENE 3 6 30.31 1026 0 0 0.00 0.00
5:53 am 05:53 Mostly Clear with Fog 47 8.3 47 8.3 100 100 NE 3 6 30.30 1026 0 0 0.00 0.00
6:18 am 06:18 Cloudy with Fog 47 8.3 47 8.3 100 100 Calm 30.31 1026 0 0 0.00 0.00
6:53 am 06:53 Cloudy with Mist and Fog 47 8.3 46 7.8 97 97 Calm 30.30 1026 1 2 0.00 0.00
7:53 am 07:53 Cloudy with Mist and Fog 46 7.8 46 7.8 100 100 Calm 30.30 1026 1 2 0.00 0.00
8:53 am 08:53 Cloudy with Mist and Fog 47 8.3 47 8.3 100 100 Calm 30.32 1027 1 2 0.00 0.00
9:53 am 09:53 Partly Cloudy with Fog 48 8.9 48 8.9 100 100 Calm 30.34 1027 1 1 0.00 0.00
10:53 am 10:53 Partly Cloudy with Fog 51 10.6 51 10.6 100 100 Calm 30.32 1027 1 1 0.00 0.00
11:22 am 11:22 Mostly Cloudy with Mist and Fog 53 11.7 53 11.7 100 100 Calm 30.32 1027 2 3 0.00 0.00
11:43 am 11:43 Sunny with Mist and Fog 55 12.8 54 12.2 96 96 Calm 30.32 1027 6 10 0.00 0.00
11:53 am 11:53 Sunny 55 12.8 55 12.8 100 100 Calm 30.32 1027 7 11 0.00 0.00
12:53 pm 12:53 Sunny 65 18.3 55 12.8 70 70 VRB 3 6 30.29 1026 10 16 0.00 0.00
1:53 pm 13:53 Sunny 69 20.6 55 12.8 61 61 Calm 30.25 1024 10 16 0.00 0.00
2:53 pm 14:53 Sunny 71 21.7 52 11.1 51 51 SSW 9 15 30.22 1024 9 14 0.00 0.00
3:53 pm 15:53 Sunny 71 21.7 52 11.1 51 51 VRB 6 9 30.21 1023 10 16 0.00 0.00
4:53 pm 16:53 Sunny 71 21.7 51 10.6 49 49 S 8 13 30.20 1023 10 16 0.00 0.00
5:53 pm 17:53 Sunny 69 20.6 51 10.6 53 53 SSW 3 6 30.19 1022 10 16 0.00 0.00
6:53 pm 18:53 Clear 62 16.7 50 10 65 65 Calm 30.18 1022 10 16 0.00 0.00
7:53 pm 19:53 Clear 55 12.8 51 10.6 86 86 Calm 30.18 1022 10 16 0.00 0.00
8:53 pm 20:53 Clear 54 12.2 50 10 86 86 Calm 30.19 1022 10 16 0.00 0.00
9:53 pm 21:53 Clear 51 10.6 51 10.6 100 100 Calm 30.19 1022 10 16 0.00 0.00
10:53 pm 22:53 Clear with Mist and Fog 50 10 50 10 100 100 Calm 30.20 1023 6 10 0.00 0.00
11:20 pm 23:20 Clear with Mist and Fog 50 10 49 9.4 96 96 Calm 30.21 1023 3 5 0.00 0.00
11:53 pm 23:53 Clear with Mist and Fog 50 10 49 9.4 96 96 Calm 30.19 1022 4 6 0.00 0.00

Powered by AerisWeather